KE7JVX-3 Weather Reports


Display with metric or nautical units.
time (UTC)temp
F
wind
direction
speed
MPH
gust
MPH
rain 1hr
in
rain 24hr
in
rain mn
in
humidity
%
barometer
mb
20260505065524 37 250 24.0 31.0 0.00 0.00 0.00 78 1008.6
20260505065025 37 252 26.0 35.0 0.00 0.00 0.00 78 1008.5
20260505064522 37 252 26.0 35.0 0.00 0.00 0.00 78 1008.5
20260505063522 36 254 23.0 33.0 0.00 0.00 0.00 77 1008.6
20260505062522 36 257 24.0 35.0 0.00 0.00 0.00 77 1008.8
20260505061522 36 254 23.0 36.0 0.00 0.00 0.00 77 1008.8
20260505060522 36 258 25.0 35.0 0.00 0.00 0.00 77 1008.9
20260505055522 36 262 24.0 40.0 0.00 0.00 0.00 77 1009.0
20260505054525 36 255 26.0 34.0 0.00 0.00 0.00 77 1008.8
20260505053522 36 259 25.0 40.0 0.00 0.00 0.00 77 1008.9
20260505052522 37 245 25.0 37.0 0.00 0.00 0.00 77 1008.9
20260505051522 37 247 27.0 36.0 0.00 0.00 0.00 77 1008.8
20260505050522 37 255 26.0 36.0 0.00 0.00 0.00 76 1008.7
20260505041522 37 250 25.0 37.0 0.00 0.00 0.00 75 1008.7
20260505040522 37 252 24.0 35.0 0.00 0.00 0.00 74 1008.9
20260505035523 37 257 26.0 36.0 0.00 0.00 0.00 72 1008.8
20260505034522 37 253 26.0 36.0 0.00 0.00 0.00 70 1008.9
20260505033523 37 252 24.0 36.0 0.00 0.00 0.00 68 1008.9
20260505032522 38 252 23.0 33.0 0.00 0.00 0.00 67 1008.7
20260505031524 38 240 21.0 27.0 0.00 0.00 0.00 66 1008.5
20260505030524 39 247 24.0 32.0 0.00 0.00 0.00 66 1008.8
20260505025522 39 255 21.0 32.0 0.00 0.00 0.00 64 1008.9
20260505024522 39 251 23.0 35.0 0.00 0.00 0.00 64 1008.8
20260505023522 39 248 26.0 38.0 0.00 0.00 0.00 63 1008.8
20260505022023 40 249 26.0 36.0 0.00 0.00 0.00 62 1008.6
20260505021022 40 246 26.0 35.0 0.00 0.00 0.00 57 1008.5
20260505020022 41 245 24.0 35.0 0.00 0.00 0.00 53 1008.7
20260505015022 41 244 23.0 33.0 0.00 0.00 0.00 51 1008.8
20260505014022 41 247 24.0 37.0 0.00 0.00 0.00 50 1008.8
20260505013057 42 254 27.0 36.0 0.00 0.00 0.00 50 1008.8
20260505013022 42 254 27.0 36.0 0.00 0.00 0.00 50 1008.8
20260505012022 42 249 23.0 31.0 0.00 0.00 0.00 49 1008.9
20260505011022 42 247 23.0 31.0 0.00 0.00 0.00 48 1008.8
20260505010024 42 247 23.0 32.0 0.00 0.00 0.00 47 1009.0
20260505005022 42 249 23.0 33.0 0.00 0.00 0.00 45 1009.0
20260505004022 42 259 23.0 36.0 0.00 0.00 0.00 44 1009.1
20260505002228 42 252 26.0 32.0 0.00 0.00 0.00 44 1009.0
20260505001229 43 243 23.0 32.0 0.00 0.00 0.00 43 1008.9
20260505000229 43 240 22.0 34.0 0.00 0.00 0.00 42 1009.4
20260504235230 44 251 20.0 32.0 0.00 0.00 0.00 41 1009.3
20260504234230 44 254 24.0 38.0 0.00 0.00 0.00 42 1009.4
20260504233228 44 251 25.0 35.0 0.00 0.00 0.00 40 1009.4
20260504232228 44 241 25.0 34.0 0.00 0.00 0.00 37 1009.1
20260504231228 44 250 23.0 34.0 0.00 0.00 0.00 36 1009.5
20260504230229 44 255 23.0 37.0 0.00 0.00 0.00 35 1009.7
20260504225228 45 249 24.0 44.0 0.00 0.00 0.00 36 1009.7
20260504224229 45 258 26.0 38.0 0.00 0.00 0.00 37 1009.7
20260504223551 45 256 25.0 37.0 0.00 0.00 0.00 37 1009.9
20260504223228 45 256 25.0 37.0 0.00 0.00 0.00 37 1009.9
20260504222228 45 260 27.0 40.0 0.00 0.00 0.00 36 1009.9
20260504221708 45 259 26.0 40.0 0.00 0.00 0.00 40 1010.1
20260504221228 45 259 26.0 40.0 0.00 0.00 0.00 40 1010.1
20260504220611 45 254 24.0 44.0 0.00 0.00 0.00 39 1010.2
20260504220230 45 254 24.0 44.0 0.00 0.00 0.00 39 1010.2
20260504215748 45 258 21.0 37.0 0.00 0.00 0.00 38 1010.4
20260504215228 45 258 21.0 37.0 0.00 0.00 0.00 38 1010.4
20260504214703 45 256 23.0 33.0 0.00 0.00 0.00 41 1010.4
20260504214229 45 256 23.0 33.0 0.00 0.00 0.00 41 1010.4
20260504213647 46 257 24.0 36.0 0.00 0.00 0.00 40 1010.4
20260504213229 46 257 24.0 36.0 0.00 0.00 0.00 40 1010.4
20260504212743 46 265 19.0 29.0 0.00 0.00 0.00 40 1010.7
20260504212229 46 265 19.0 29.0 0.00 0.00 0.00 40 1010.7
20260504211709 46 256 20.0 30.0 0.00 0.00 0.00 41 1010.6
20260504211231 46 256 20.0 30.0 0.00 0.00 0.00 41 1010.6
20260504210228 47 260 19.0 30.0 0.00 0.00 0.00 42 1010.8
20260504205230 47 246 19.0 36.0 0.00 0.00 0.00 42 1010.7
20260504204229 47 264 19.0 37.0 0.00 0.00 0.00 39 1010.8
20260504203230 47 251 23.0 39.0 0.00 0.00 0.00 38 1010.8
20260504202234 47 254 22.0 33.0 0.00 0.00 0.00 38 1010.6
20260504201228 47 253 21.0 37.0 0.00 0.00 0.00 35 1010.6
20260504200228 47 246 20.0 28.0 0.00 0.00 0.00 32 1010.6
20260504195228 47 249 19.0 29.0 0.00 0.00 0.00 32 1010.5
20260504194228 47 247 17.0 28.0 0.00 0.00 0.00 32 1010.6
20260504193228 47 242 18.0 28.0 0.00 0.00 0.00 32 1010.6
20260504192229 47 253 18.0 27.0 0.00 0.00 0.00 32 1010.7
20260504191228 47 247 18.0 26.0 0.00 0.00 0.00 31 1010.6
20260504190228 47 239 15.0 27.0 0.00 0.00 0.00 34 1010.7
20260504185228 47 255 17.0 27.0 0.00 0.00 0.00 37 1010.8
20260504184228 47 250 18.0 28.0 0.00 0.00 0.00 33 1010.7
20260504183228 46 252 20.0 29.0 0.00 0.00 0.00 34 1010.9
20260504182229 47 247 21.0 33.0 0.00 0.00 0.00 37 1011.0
20260504181228 46 246 19.0 28.0 0.00 0.00 0.00 37 1011.0
20260504180228 46 252 19.0 36.0 0.00 0.00 0.00 34 1010.9
20260504175228 45 248 23.0 35.0 0.00 0.00 0.00 34 1010.9
20260504174228 45 253 21.0 33.0 0.00 0.00 0.00 41 1010.9
20260504173230 45 257 23.0 36.0 0.00 0.00 0.00 38 1010.9
20260504172228 45 249 22.0 37.0 0.00 0.00 0.00 44 1010.6
20260504171229 45 250 24.0 38.0 0.00 0.00 0.00 44 1010.6
20260504170228 44 244 23.0 33.0 0.00 0.00 0.00 44 1010.6
20260504160228 42 249 22.0 37.0 0.00 0.00 0.00 50 1010.0
20260504150228 41 249 19.0 23.0 0.00 0.00 0.00 63 1010.1
20260504141229 40 253 15.0 21.0 0.00 0.00 0.00 67 1010.2
20260504140228 40 258 16.0 23.0 0.00 0.00 0.00 66 1010.2
20260504130228 39 263 15.0 22.0 0.00 0.00 0.00 69 1009.9
20260504120228 40 261 12.0 17.0 0.00 0.00 0.00 66 1009.7
20260504110228 41 258 15.0 24.0 0.00 0.00 0.00 60 1009.9
20260504100228 42 264 19.0 29.0 0.00 0.00 0.00 57 1009.9
20260504081228 42 263 19.0 28.0 0.00 0.00 0.00 60 1009.9
20260504080228 42 264 17.0 30.0 0.00 0.00 0.00 60 1009.9
20260504070228 43 263 20.0 31.0 0.00 0.00 0.00 56 1010.0